{"data":{"norad_id":59704,"epoch":"2026-09-21T16:16:34.005504Z","epoch_age_seconds":69466,"freshness":"FRESH","line1":"1 59704U 24086Y   26264.67817136 -.00000037  00000+0  81723-5 0  9990","line2":"2 59704  43.0054  33.2621 0001383 269.4560  90.6133 15.27577286134085","mean_motion":15.27577286,"eccentricity":0.0001383,"inclination_deg":43.0054,"raan_deg":33.2621,"arg_perigee_deg":269.456,"mean_anomaly_deg":90.6133,"bstar":8.1723e-6,"rev_number":13408,"period_min":94.266916194511,"perigee_km":482.10831958304,"apogee_km":484.00612590505,"semimajor_km":6861.194222744,"source":"CELESTRAK","updated_at":"2026-09-22T09:00:49.056788Z"}}